Regional Weather Roundup
Issued by NWS

Home | Current Version | Previous Version | Graphics & Text | Print | Product List | Glossary On
Versions: 1 2 3 4 5 6 7 8 9 10 11 12 13 14 15 16 17 18 19 20 21 22 23 24 25 26 27 28 29 30 31 32 33 34 35 36 37 38 39 40 41 42 43 44 45 46 47 48 49 50
000
ASUS43 KDTX 072310
RWRMI
MICHIGAN HOURLY REGIONAL WEATHER ROUNDUP
NATIONAL WEATHER SERVICE DETROIT/PONTIAC MI
600 PM EST SUN FEB 07 2016

NOTE: "FAIR" INDICATES FEW OR NO CLOUDS BELOW 12,000 FEET WITH NO
SIGNIFICANT WEATHER AND/OR OBSTRUCTION TO VISIBILITY.

MIZ047>049-052>055-059>063-066>070-074>076-081>083-080000-
SOUTHEAST LOWER MICHIGAN

CITY           SKY/WX    TMP DP  RH WIND       PRES   REMARKS
ADRIAN         MOCLDY    45  31  58 SW15      29.77R
ALMA           CLOUDY    41  32  70 S6        29.71R
ANN ARBOR      CLOUDY    46  28  49 SW13G20   29.75S
BAD AXE        CLOUDY    42  33  70 S10       29.72R
CARO           CLOUDY    45  29  53 S8        29.72R
DETROIT CITY   CLOUDY    47  29  49 SW14      29.77S
DETROIT        CLOUDY    47  29  49 S14       29.78R
FLINT          CLOUDY    47  29  49 SW12      29.73R
GROSSE ILE     CLOUDY    43  34  70 S12       29.76S
HILLSDALE      CLOUDY    43  28  56 SW8       29.75R
HOWELL         CLOUDY    44  29  55 SW9G18    29.74R

CITY           SKY/WX    TMP DP  RH WIND       PRES   REMARKS
JACKSON        CLOUDY    44  28  53 SW10      29.75R
LAMBERTVILLE   CLOUDY    47  31  52 SW8G16    29.78S
LANSING        CLOUDY    44  29  55 SW14G24   29.73R
LAPEER         CLOUDY    44  30  57 SW13      29.74R
MASON          CLOUDY    43  30  59 SW5       29.74R
MONROE         MOCLDY    48  31  52 S13G18    29.77R
MT. CLEMENS    CLOUDY    43  33  68 S13       29.75S
PONTIAC        CLOUDY    45  27  49 SW13G20   29.74R
PORT HOPE        N/A     41  32  70 S9        29.70R
PORT HURON     CLOUDY    45  34  65 S10       29.77S
TRI CITIES     CLOUDY    45  29  53 S9        29.71R
MIDLAND        CLOUDY    42  29  60 S5        29.70R
TROY           CLOUDY    48  28  45 S12G18    29.77R
SAGINAW HB     CLOUDY    43  32  65 S10       29.71S
$$
MIZ043>046-050>051-056>058-064>065-071>073-077>080-080000-
SOUTHWEST LOWER MICHIGAN

CITY           SKY/WX    TMP DP  RH WIND       PRES   REMARKS
BATTLE CREEK   CLOUDY    43  30  60 SW12      29.74R
BENTON HARBOR  PTCLDY    42  32  67 SW15      29.74S
BIG RAPIDS     MOCLDY    39  31  72 SW9       29.67R WCI  32
COLDWATER      CLOUDY    43  30  60 SW10G17   29.75R
FREMONT        MOCLDY    37  32  81 SW10      29.69R WCI  30
HOLLAND        MOCLDY    41  32  70 SW15      29.71F
GRAND RAPIDS   CLOUDY    42  31  64 SW10      29.71S
IONIA          CLOUDY    40  31  71 SW9       29.71R WCI  34
KALAMAZOO      CLOUDY    44  31  60 SW10      29.74S
LUDINGTON      CLOUDY    37  33  84 S13       29.67R WCI  29
MARSHALL       CLOUDY    44  30  59 SW7       29.74R
MOUNT PLEASANT CLOUDY    41  29  61 SW6       29.69S
MUSKEGON       CLOUDY    39  32  76 S9        29.70R WCI  33
SOUTH HAVEN    PTCLDY    42  32  69 SW16      29.72S
$$
MIZ016>042-080000-
NORTHERN LOWER MICHIGAN

CITY           SKY/WX    TMP DP  RH WIND       PRES   REMARKS
ALPENA         CLOUDY    38  29  70 S6        29.67R WCI  33
BEAVER ISLAND  CLOUDY    38  33  82 S8        29.62R WCI  32
BELLAIRE       CLOUDY    40  31  70 SW6       29.65R
CADILLAC       CLOUDY    37  31  80 SW13      29.64R WCI  28
CHARLEVOIX     CLOUDY    39  31  72 SW7       29.66R WCI  34
FRANKFORT      CLOUDY    38  32  80 S9        29.64S WCI  31
GAYLORD        CLOUDY    39  30  70 SW7       29.62R WCI  34
GRAYLING       CLOUDY    39  30  71 SW8       29.65R WCI  33
HARBOR SPRINGS CLOUDY    38  31  78 SW3       29.63R
HOUGHTON LAKE  CLOUDY    38  28  67 S15       29.66R WCI  29
MANISTEE       CLOUDY    39  28  65 SW9       29.66S WCI  33
OSCODA         CLOUDY    39  31  71 S7        29.68S WCI  34
PELLSTON       CLOUDY    36  32  85 CALM      29.64R
ROGERS CITY    CLOUDY    38  30  73 SE6       29.67R WCI  33
TRAVERSE CITY  CLOUDY    40  30  67 VRB7      29.64R
$$
MIZ007>008-015-080000-
EASTERN UPPER MICHIGAN

CITY           SKY/WX    TMP DP  RH WIND       PRES   REMARKS
KINROSS        CLOUDY    34  34 100 SE10      29.63S WCI  26
MACKINAC ISLAN CLOUDY    35  34  96 SE9G16    29.63R WCI  27
NEWBERRY       CLOUDY    34  33  96 S8        29.59R FOG     WCI  27
S. S. MARIE    CLOUDY    32  29  88 E8        29.64S FOG     WCI  25
MUNISING         N/A     35  32  88 S5        29.55R WCI  31
$$
MIZ004>006-011>014-085-080000-
CENTRAL UPPER MICHIGAN

CITY           SKY/WX    TMP DP  RH WIND       PRES   REMARKS
MANISTIQUE     CLOUDY    36  33  92 S7        29.58R WCI  30
ESCANABA       CLOUDY    37  32  81 SW7       29.57R WCI  32
MENOMINEE      CLOUDY    37  28  70 SW7       29.59R WCI  32
SAWYER-GWINN   CLOUDY    32  32 100 S7        29.52R FOG     WCI  26
$$
MIZ001>003-009>011-084-080000-
WESTERN UPPER MICHIGAN

CITY           SKY/WX    TMP DP  RH WIND       PRES   REMARKS
IRON MOUNTAIN  CLOUDY    35  30  82 SW6       29.53R WCI  30
HOUGHTON       SNOW      32  31  96 E3        29.50R VSB<1/4
COPPER HARBOR    N/A     33  32  96 CALM      29.52R
IRONWOOD       CLOUDY    34  32  93 SW9       29.47R WCI  26
$$

ABBREVIATIONS USED IN REMARKS
   TC - TEMPERATURE IN CELSIUS
  WCI - WIND CHILL INDEX
   HX - HEAT INDEX
  VSB - VISIBILITY




USA.gov is the U.S. government's official web portal to all federal, state and local government web resources and services.